AirNav   Everest Fuels
 
 638 users online  

4G5 Monroe County Airport
Woodsfield, Ohio, USA

GOING TO WOODSFIELD?


FAA INFORMATION EFFECTIVE 26 MARCH 2020

Location

FAA Identifier: 4G5
Lat/Long: 39-46-44.5837N 081-06-10.0084W
39-46.743062N 081-06.166807W
39.7790510,-81.1027801
(estimated)
Elevation: 1197 ft. / 364.8 m (surveyed)
Variation: 08W (2015)
From city: 1 mile N of WOODSFIELD, OH
Time zone: UTC -4 (UTC -5 during Standard Time)
Zip code: 43793

Airport Operations

Airport use: Open to the public
Activation date: 03/1969
Control tower: no
ARTCC: CLEVELAND CENTER
FSS: CLEVELAND FLIGHT SERVICE STATION
NOTAMs facility: CLE (NOTAM-D service available)
Attendance: IREG
Wind indicator: lighted
Segmented circle: no
Lights: ACTVT MIRL RY 07/25; AND REIL RY 25 - CTAF.
Beacon: white-green (lighted land airport)
Operates sunset to sunrise.

Airport Communications

CTAF/UNICOM: 122.8
WX AWOS-3 at MPG (18 nm E): 119.05 (304-845-2959)
  • APCH/DEP SVC PRVDD BY CLEVELAND ARTCC ON FREQS 126.95/239.30 (BELMONT RCAG).

Nearby radio navigation aids

VOR radial/distance  VOR name  Freq  Var
AIRr230/19.4BELLAIRE VOR/DME117.1007W
JPUr035/23.9PARKERSBURG VOR/DME108.6003W
CTWr155/32.0NEWCOMERSTOWN VOR/DME111.8007W
ZZVr111/37.6ZANESVILLE VOR/DME114.9506W
HLGr227/37.9WHEELING VOR/DME112.2007W

 
NDB name  Hdg/Dist  Freq  Var  ID
CADIZ196/27.823907WCFX -.-. ..-. -..-

Airport Services

Fuel available: 100LL JET-A+
AFTR HRS CTC MANAGER FOR FUEL 740-213-3106
Parking: tiedowns
Airframe service: NONE
Powerplant service: NONE
Bottled oxygen: NONE
Bulk oxygen: NONE

Runway Information

Runway 7/25

Dimensions: 3805 x 75 ft. / 1160 x 23 m
Surface: asphalt, in fair condition
Weight bearing capacity: 
Single wheel: 18.0
Runway edge lights: medium intensity
Runway edge markings: RWY 07/25 MKG FADED
RUNWAY 7  RUNWAY 25
Latitude: 39-46.615640N39-46.870463N
Longitude: 081-06.537868W081-05.795722W
Elevation: 1193.8 ft.1190.4 ft.
Traffic pattern: leftleft
Runway heading: 074 magnetic, 066 true254 magnetic, 246 true
Displaced threshold: 173 ft.no
Markings: nonprecision, in poor conditionnonprecision, in poor condition
Runway end identifier lights: yes
Touchdown point: yes, no lightsyes, no lights
Obstructions: 45 ft. trees, 650 ft. from runway, 270 ft. right of centerline, 10:1 slope to clear
RWY 07 APCH RATIO 18:1 TO DSPLCD THLD
10 ft. trees, 201 ft. from runway, 175 ft. left of centerline
0-10 FT TREES & BRUSH 80 FT -TO- 200 FT FM RWY 145 FT -TO- 250 FT L

Airport Ownership and Management from official FAA records

Ownership: Publicly-owned
Owner: COUNTY CMSN
101 N. MAIN ST.
WOODSFIELD, OH 43793
Phone 740-472-1341
Manager: DAVID DALRYMPLE
47073 STATE RTE 26
WOODSFIELD, OH 43793
Phone 740-472-1882
ADNL CTC: MONROECOUNTYAIRPORT@YAHOO.COM / 740-213-3106

Airport Operational Statistics

Aircraft based on the field: 12
Single engine airplanes: 9
Helicopters: 2
Ultralights: 1
    
Aircraft operations: avg 83/week *
58% local general aviation
14% military
14% transient general aviation
14% air taxi
* for 12-month period ending 06 September 2018

Additional Remarks

OCCL DEER BIRDS & OTHER WILDLIFE ON & INVOF ARPT.
FOR CD CTC CLEVELAND ARTCC AT 440-774-0226.

Instrument Procedures

NOTE: All procedures below are presented as PDF files. If you need a reader for these files, you should download the free Adobe Reader.

NOT FOR NAVIGATION. Please procure official charts for flight.
FAA instrument procedures published for use from 26 March 2020 at 0901Z to 23 April 2020 at 0900Z.

 
IAPs - Instrument Approach Procedures
RNAV (GPS) RWY 25   download (235KB)
VOR/DME RWY 25 **CHANGED**   download (170KB)
NOTE: Special Take-Off Minimums/Departure Procedures apply   download (164KB)

Other nearby airports with instrument procedures:

6G5 - Barnesville-Bradfield Airport (14 nm N)
2P7 - Alderman Airport (18 nm N)
KMPG - Marshall County Airport (18 nm E)
I10 - Noble County Airport (20 nm W)
KCDI - Cambridge Municipal Airport (25 nm NW)
 
Loc | Ops | Rwys | IFR | FBO | Links
Com | Nav | Svcs | Stats | Notes
Area around 4G5 (Monroe County Airport)
 
Road maps at: MapQuest Bing Google
 
Aerial photo
WARNING: Photo may not be current or correct
Aerial photo of 4G5 (Monroe County Airport)
Photo by John Carpenter
Photo taken 13-Nov-2010
looking west.

Do you have a better or more recent aerial photo of Monroe County Airport that you would like to share? If so, please send us your photo.

 
Sectional chart

 
Airport distance calculator
Flying to Monroe County Airport? Find the distance to fly.

From to 4G5

Sunrise and sunset
Times for 28-Mar-2020
 Local
(UTC-4)
 Zulu
(UTC)
Morning civil twilight06:4710:47
Sunrise07:1411:14
Sunset19:4423:44
Evening civil twilight20:1100:11

Current date and time
Zulu (UTC)  29-Mar-2020 02:59:38
Local (UTC-4)  28-Mar-2020 22:59:38
 
METAR
KCDI 
25nm NW 
290236Z AUTO 00000KT 10SM VCTS SCT031 BKN050 OVC070 17/17 A2983 RMK AO2 LTG DSNT N AND NE T01730165
KPKB 
30nm SW 
290253Z 01003KT 10SM CLR 19/16 A2981 RMK AO2 SLP088 T01940161 53000
KHLG 
31nm NE 
290253Z AUTO 06004KT 10SM OVC075 17/16 A2984 RMK AO2 LTG DSNT W-NE RAE49 TSE07 SLP103 P0013 60032 T01670156 50010
KZZV 
38nm W 
290253Z AUTO 07006KT 10SM FEW031 SCT085 17/15 A2981 RMK AO2 LTG DSNT NE AND E SLP088 60004 T01720150 50005
KAFJ 
43nm NE 
290211Z AUTO 21006KT 1 3/4SM TS BR FEW013 BKN037 OVC080 17/16 A2991 RMK AO2 WSHFT 0143 VIS 1V5 LTG DSNT ALQDS TSE04B09 P0017 PWINO
KPHD 
44nm N 
290253Z AUTO 12007G23KT 5SM -TSRA BR FEW015 BKN095 OVC120 18/17 A2973 RMK AO2 LTG DSNT NE-S TSE13B40 SLP063 P0009 60012 T01830172 58025
TAF
KPKB 
30nm SW 
282045Z 2821/2918 22011G18KT P6SM SCT070 SCT090 FM282300 22007KT P6SM BKN100 FM291200 21011G19KT P6SM SHRA VCTS OVC050CB FM291400 23014G26KT P6SM BKN060
KHLG 
31nm NE 
290052Z 2901/2924 23004KT P6SM -SHRA VCTS OVC050CB TEMPO 2901/2903 1 1/2SM TSRA OVC025CB FM290400 18006KT P6SM -SHRA OVC050 FM291300 20012G22KT P6SM -SHRA OVC050 FM291700 23019G33KT P6SM BKN050
NOTAMs
Click for the latest NOTAMs
NOTAMs are issued by the DoD/FAA and will open in a separate window not controlled by AirNav.

 

 
 

FBO, Fuel Providers, and Aircraft Ground Support

  
 Business Name 
 
 Contact 
 
 Services / Description 
 
Fuel Prices
 
Comments
  
 Monroe County Airport
740-472-1882 Airport management, Aviation fuel, Aircraft parking (ramp or tiedown), Hangar leasing / sales, Passenger terminal and lounge, Rental cars, Public telephone, ...

More info about Monroe County Airport
Phillips 66
100LL Jet A
FS $5.36 $4.00 
 Updated 24-Mar-2020
 
   write
FS=Full service
Update Fuel Prices
 

Would you like to see your business listed on this page?

 If your business provides an interesting product or service to pilots, flight crews, aircraft, or users of the Monroe County Airport, you should consider listing it here.  To start the listing process, click on the button below
 
Add a business
 

Other Pages about Monroe County Airport

Update a link
 
Copyright © AirNav, LLC. All rights reserved. Privacy Policy  Contact